Location: Andershausen
(51.8462°N, 9.8595°E)
Time: 10:14:38
(UTC+00:00)

Cosmos 1844 Rocket - Pass Details

Date: 18 November 2025
Orbit: 822 x 844 km, 71.0° (Epoch: 12 December)

Event Time Altitude Azimuth Distance (km) Brightness Sun altitude
Rises 16:10:20 0° 243° (WSW) 3,355 8.4 -7.0°
Reaches altitude 10° 16:13:00 10° 253° (WSW) 2,428 6.9 -7.4°
Maximum altitude 16:17:58 32° 316° (NW) 1,385 4.1 -8.1°
Drops below altitude 10° 16:22:59 10° 20° (NNE) 2,450 4.7 -8.8°
Enters shadow 16:25:06 - 28° (NNE) 3,178 5.2 -9.1°
